Flag for U.S.A. Weather past 2 weeks in Stillwater, Minnesota, U.S.A.

Now
67 °F

Clear.


Feels Like: 67 °F
Forecast: 59 / 83 °F
Wind: No wind

Location: St. Paul Downtown Holman Field

Current Time: May 27, 2015 at 11:27:21 PM

Latest Report: May 27, 2015 at 9:53 PM


Visibility: 10 mi

Pressure: 29.99 "Hg

Humidity: 71%

Dew point: 57 °F

Location of StillwaterLocation

Historic Weather in Stillwater — Graph

°F

Stillwater temperature yesterday

Maximum temperature yesterday: 60 °F (at 12:53 AM)
Minimum temperature yesterday: 56 °F (at 4:53 AM)
Average temperature yesterday: 58 °F

Past Weeks' High & Low Weather Summary

 TemperatureHumidityPressure
High83 °F (May 27, 3:53 PM)100% (May 14, 8:53 PM)30.43 "Hg (May 14, 8:53 PM)
Low35 °F (May 19, 5:53 AM)25% (May 21, 6:53 PM)29.54 "Hg (May 17, 5:53 PM)
Average58 °F71%30.02 "Hg
* Reported May 12 9:53 PM — May 27 9:53 PM, Stillwater, Weather by CustomWeather, © 2015

Note: Actual official high and low records may vary slightly from our data, if they occured in-between our weather recording intervals... More about our weather records

Advertising

Stillwater weather history for previous 24 hours

 ConditionsComfort  
Time TempWeatherWind HumidityBarometerVisibility
9:53 PM
Wed, May 27
67 °FClear.No wind71%29.99 "Hg10 mi
8:53 PM71 °FSunny.3 mph61%29.97 "Hg10 mi
7:53 PM79 °FSunny.7 mph41%29.95 "Hg10 mi
6:53 PM82 °FSunny.9 mph35%29.93 "Hg10 mi
5:53 PM83 °FPassing clouds.10 mph36%29.94 "Hg10 mi
4:53 PM83 °FSunny.9 mph37%29.94 "Hg10 mi
3:53 PM83 °FSunny.9 mph40%29.94 "Hg10 mi
2:53 PM80 °FSunny.10 mph47%29.94 "Hg10 mi
1:53 PM78 °FSunny.12 mph50%29.94 "Hg10 mi
12:53 PM76 °FSunny.12 mph52%29.93 "Hg10 mi
11:53 AM74 °FSunny.9 mph56%29.93 "Hg10 mi
10:53 AM71 °FSunny.12 mph63%29.91 "Hg10 mi
9:53 AM68 °FSunny.6 mph70%29.91 "Hg10 mi
8:53 AM64 °FSunny.5 mph81%29.92 "Hg10 mi
7:53 AM60 °FSunny.No wind93%29.92 "Hg8 mi
6:53 AM57 °FFog.No wind96%29.90 "Hg4 mi
5:53 AM54 °FFog.No wind100%29.88 "Hg4 mi
4:53 AM55 °FClear.No wind100%29.86 "Hg7 mi
3:53 AM55 °FFog.No wind100%29.84 "Hg5 mi
2:53 AM56 °FFog.No wind97%29.83 "Hg6 mi
1:53 AM56 °FClear.3 mph100%29.82 "Hg9 mi
12:53 AM57 °FPassing clouds.3 mph96%29.81 "Hg10 mi
11:53 PM
Tue, May 26
57 °FMostly cloudy.5 mph96%29.81 "Hg10 mi
Weather by CustomWeather, © 2015

See weather overviewHow to use our weather pages